| time (UTC) | temp F | wind direction | speed knots | gust knots | rain 1hr in | rain 24hr in | rain mn in | humidity % | barometer mb |
| 20260509064547 | 52 | 172 | 3.5 | 6.1 | 0.00 | 0.05 | 0.00 | 45 | 1009.2 |
| 20260509063103 | 52 | 165 | 1.7 | 4.3 | 0.00 | 0.05 | 0.00 | 45 | 1009.6 |
| 20260509061609 | 51 | 184 | 0.9 | 1.7 | 0.00 | 0.05 | 0.00 | 44 | 1009.8 |
| 20260509060055 | 51 | 184 | 0.0 | 2.6 | 0.00 | 0.05 | 0.00 | 42 | 1010.1 |
| 20260509054541 | 52 | 177 | 1.7 | 4.3 | 0.00 | 0.05 | 0.00 | 44 | 1010.1 |
| 20260509053042 | 52 | 190 | 0.9 | 2.6 | 0.00 | 0.05 | 0.00 | 42 | 1010.3 |
| 20260509051537 | 51 | 191 | 0.0 | 1.7 | 0.00 | 0.05 | 0.00 | 40 | 1010.3 |
| 20260509050035 | 52 | 190 | 0.9 | 3.5 | 0.00 | 0.05 | 0.00 | 40 | 1010.3 |
| 20260509044535 | 51 | 180 | 1.7 | 2.6 | 0.00 | 0.05 | 0.00 | 37 | 1010.4 |
| 20260509043033 | 51 | 176 | 0.9 | 1.7 | 0.00 | 0.05 | 0.00 | 37 | 1010.4 |
| 20260509041531 | 52 | 176 | 0.9 | 1.7 | 0.00 | 0.05 | 0.00 | 39 | 1010.5 |
| 20260509040027 | 52 | 175 | 0.9 | 2.6 | 0.00 | 0.05 | 0.00 | 40 | 1010.7 |
| 20260509034526 | 54 | 175 | 0.0 | 3.5 | 0.00 | 0.05 | 0.05 | 40 | 1010.7 |
| 20260509033026 | 54 | 151 | 0.9 | 2.6 | 0.00 | 0.05 | 0.05 | 40 | 1010.8 |
| 20260509031527 | 54 | 150 | 0.0 | 1.7 | 0.00 | 0.05 | 0.05 | 40 | 1010.7 |
| 20260509030025 | 55 | 360 | 1.7 | 3.5 | 0.00 | 0.05 | 0.05 | 40 | 1011.0 |
| 20260509024524 | 55 | 187 | 0.0 | 2.6 | 0.00 | 0.05 | 0.05 | 40 | 1011.0 |
| 20260509023024 | 54 | 187 | 0.0 | 0.9 | 0.00 | 0.05 | 0.05 | 43 | 1010.9 |
| 20260509021524 | 55 | 187 | 0.9 | 2.6 | 0.00 | 0.05 | 0.05 | 43 | 1011.1 |
| 20260509020035 | 55 | 360 | 1.7 | 5.2 | 0.00 | 0.05 | 0.05 | 44 | 1010.8 |
| 20260509014538 | 56 | 360 | 2.6 | 5.2 | 0.00 | 0.16 | 0.05 | 46 | 1010.8 |
| 20260509013030 | 56 | 360 | 1.7 | 4.3 | 0.00 | 0.16 | 0.05 | 47 | 1010.7 |
| 20260509011521 | 57 | 360 | 4.3 | 7.0 | 0.00 | 0.16 | 0.05 | 47 | 1010.7 |
| 20260509010019 | 57 | 360 | 3.5 | 7.8 | 0.00 | 0.16 | 0.05 | 46 | 1010.5 |
| 20260509004520 | 58 | 211 | 3.5 | 7.8 | 0.00 | 0.20 | 0.05 | 44 | 1010.4 |
| 20260509003028 | 59 | 215 | 6.1 | 10.4 | 0.00 | 0.20 | 0.05 | 41 | 1010.3 |
| 20260509001517 | 60 | 210 | 5.2 | 8.7 | 0.00 | 0.20 | 0.05 | 41 | 1010.3 |
| 20260509000016 | 60 | 219 | 5.2 | 10.4 | 0.00 | 0.20 | 0.05 | 42 | 1010.3 |
| 20260508234516 | 61 | 215 | 7.8 | 13.0 | 0.00 | 0.20 | 0.05 | 42 | 1010.5 |
| 20260508233015 | 61 | 214 | 6.1 | 13.0 | 0.00 | 0.20 | 0.05 | 42 | 1010.4 |
| 20260508231514 | 61 | 223 | 9.6 | 13.0 | 0.00 | 0.20 | 0.05 | 40 | 1010.4 |
| 20260508230018 | 62 | 224 | 6.1 | 14.8 | 0.00 | 0.20 | 0.05 | 39 | 1010.4 |
| 20260508224512 | 63 | 238 | 7.0 | 12.2 | 0.00 | 0.20 | 0.05 | 37 | 1010.6 |
| 20260508223016 | 63 | 250 | 9.6 | 16.5 | 0.00 | 0.20 | 0.05 | 39 | 1010.7 |
| 20260508221509 | 63 | 233 | 11.3 | 15.6 | 0.00 | 0.20 | 0.05 | 37 | 1010.7 |
| 20260508220008 | 62 | 269 | 10.4 | 15.6 | 0.00 | 0.20 | 0.05 | 37 | 1010.7 |
| 20260508214514 | 62 | 227 | 10.4 | 17.4 | 0.00 | 0.20 | 0.05 | 40 | 1010.7 |
| 20260508213006 | 61 | 251 | 11.3 | 15.6 | 0.00 | 0.20 | 0.05 | 40 | 1010.8 |
| 20260508211506 | 61 | 213 | 13.0 | 19.1 | 0.00 | 0.20 | 0.05 | 40 | 1010.9 |
| 20260508210006 | 61 | 243 | 11.3 | 20.0 | 0.00 | 0.20 | 0.05 | 40 | 1010.9 |
| 20260508204505 | 62 | 254 | 11.3 | 20.0 | 0.00 | 0.20 | 0.05 | 39 | 1011.0 |
| 20260508203107 | 62 | 227 | 12.2 | 17.4 | 0.00 | 0.20 | 0.05 | 38 | 1011.2 |
| 20260508201606 | 63 | 249 | 13.0 | 18.2 | 0.00 | 0.20 | 0.05 | 39 | 1011.3 |
| 20260508194558 | 61 | 238 | 9.6 | 15.6 | 0.00 | 0.20 | 0.05 | 39 | 1011.3 |
| 20260508193057 | 61 | 219 | 9.6 | 14.8 | 0.00 | 0.20 | 0.05 | 40 | 1011.4 |
| 20260508191555 | 62 | 228 | 6.1 | 9.6 | 0.00 | 0.20 | 0.05 | 37 | 1011.7 |
| 20260508190054 | 62 | 230 | 4.3 | 7.8 | 0.00 | 0.20 | 0.05 | 35 | 1012.0 |
| 20260508184551 | 61 | 239 | 6.1 | 9.6 | 0.00 | 0.20 | 0.05 | 37 | 1012.3 |
| 20260508183049 | 61 | 229 | 6.1 | 10.4 | 0.00 | 0.20 | 0.05 | 37 | 1012.3 |
| 20260508181556 | 61 | 211 | 5.2 | 7.0 | 0.00 | 0.20 | 0.05 | 39 | 1012.4 |
| 20260508180047 | 61 | 198 | 1.7 | 6.1 | 0.00 | 0.20 | 0.05 | 37 | 1012.6 |
| 20260508174554 | 61 | 250 | 3.5 | 9.6 | 0.00 | 0.20 | 0.05 | 35 | 1013.2 |
| 20260508173045 | 61 | 189 | 4.3 | 8.7 | 0.00 | 0.20 | 0.05 | 38 | 1013.4 |
| 20260508171541 | 60 | 194 | 4.3 | 8.7 | 0.00 | 0.20 | 0.05 | 36 | 1013.6 |
| 20260508170040 | 60 | 192 | 5.2 | 7.8 | 0.00 | 0.20 | 0.05 | 37 | 1013.8 |
| 20260508164538 | 59 | 193 | 5.2 | 8.7 | 0.00 | 0.20 | 0.05 | 39 | 1013.9 |
| 20260508163035 | 58 | 211 | 5.2 | 7.8 | 0.00 | 0.20 | 0.05 | 38 | 1014.2 |
| 20260508161533 | 58 | 191 | 2.6 | 7.0 | 0.00 | 0.20 | 0.05 | 39 | 1014.3 |
| 20260508160034 | 58 | 196 | 4.3 | 8.7 | 0.00 | 0.20 | 0.05 | 39 | 1014.4 |
| 20260508154630 | 57 | 251 | 5.2 | 7.8 | 0.00 | 0.20 | 0.05 | 40 | 1014.6 |
| 20260508153027 | 56 | 207 | 5.2 | 8.7 | 0.00 | 0.20 | 0.05 | 40 | 1014.7 |
| 20260508151529 | 56 | 184 | 5.2 | 8.7 | 0.00 | 0.20 | 0.05 | 39 | 1014.5 |
| 20260508150031 | 55 | 223 | 4.3 | 8.7 | 0.00 | 0.20 | 0.05 | 40 | 1014.5 |
| 20260508144521 | 55 | 199 | 4.3 | 8.7 | 0.00 | 0.20 | 0.05 | 37 | 1014.6 |
| 20260508143019 | 53 | 202 | 6.1 | 9.6 | 0.00 | 0.20 | 0.05 | 36 | 1014.8 |
| 20260508141516 | 52 | 197 | 5.2 | 8.7 | 0.00 | 0.20 | 0.05 | 41 | 1014.7 |
| 20260508140010 | 51 | 203 | 3.5 | 7.0 | 0.00 | 0.20 | 0.05 | 44 | 1014.9 |
| 20260508134507 | 50 | 165 | 1.7 | 4.3 | 0.02 | 0.20 | 0.05 | 44 | 1015.0 |
| 20260508133005 | 50 | 180 | 0.9 | 2.6 | 0.03 | 0.20 | 0.05 | 44 | 1015.1 |
| 20260508131505 | 50 | 215 | 0.0 | 2.6 | 0.04 | 0.20 | 0.05 | 44 | 1015.5 |
| 20260508130000 | 49 | 212 | 1.7 | 4.3 | 0.04 | 0.20 | 0.05 | 43 | 1015.6 |
| 20260508124603 | 49 | 229 | 0.9 | 2.6 | 0.04 | 0.19 | 0.04 | 43 | 1015.5 |
| 20260508123058 | 49 | 227 | 0.9 | 2.6 | 0.02 | 0.17 | 0.02 | 43 | 1015.4 |
| 20260508121601 | 49 | 137 | 0.0 | 4.3 | 0.01 | 0.16 | 0.01 | 44 | 1015.1 |
| 20260508120052 | 48 | 188 | 0.9 | 1.7 | 0.01 | 0.16 | 0.01 | 45 | 1014.8 |
| 20260508114549 | 47 | 190 | 0.0 | 0.9 | 0.00 | 0.15 | 0.00 | 45 | 1015.0 |
| 20260508113103 | 46 | 190 | 0.0 | 0.0 | 0.00 | 0.15 | 0.00 | 44 | 1015.0 |
| 20260508111550 | 45 | 190 | 0.0 | 1.7 | 0.00 | 0.15 | 0.00 | 43 | 1014.9 |
| 20260508110047 | 45 | 190 | 0.0 | 0.0 | 0.00 | 0.15 | 0.00 | 42 | 1014.8 |
| 20260508104544 | 44 | 190 | 0.0 | 0.0 | 0.00 | 0.15 | 0.00 | 40 | 1014.8 |
| 20260508103042 | 44 | 190 | 0.0 | 0.0 | 0.00 | 0.15 | 0.00 | 39 | 1014.6 |
| 20260508101541 | 44 | 190 | 0.0 | 0.0 | 0.00 | 0.15 | 0.00 | 38 | 1014.6 |
| 20260508100039 | 44 | 190 | 0.0 | 0.0 | 0.00 | 0.15 | 0.00 | 37 | 1014.9 |
| 20260508094539 | 45 | 190 | 0.0 | 0.0 | 0.00 | 0.15 | 0.00 | 37 | 1014.8 |
| 20260508093045 | 45 | 190 | 0.0 | 0.0 | 0.00 | 0.15 | 0.00 | 37 | 1014.8 |
| 20260508091547 | 45 | 190 | 0.0 | 0.0 | 0.00 | 0.15 | 0.00 | 36 | 1014.9 |
| 20260508090040 | 45 | 190 | 0.0 | 0.0 | 0.00 | 0.15 | 0.00 | 36 | 1014.8 |
| 20260508084536 | 45 | 190 | 0.0 | 0.0 | 0.00 | 0.15 | 0.00 | 35 | 1014.9 |
| 20260508083040 | 45 | 190 | 0.0 | 0.0 | 0.00 | 0.15 | 0.00 | 35 | 1015.1 |
| 20260508081535 | 45 | 190 | 0.0 | 0.0 | 0.00 | 0.15 | 0.00 | 35 | 1014.9 |
| 20260508080036 | 45 | 190 | 0.0 | 0.0 | 0.00 | 0.15 | 0.00 | 35 | 1014.9 |
| 20260508074545 | 45 | 190 | 0.0 | 0.0 | 0.00 | 0.15 | 0.00 | 35 | 1014.8 |
| 20260508073032 | 45 | 190 | 0.0 | 0.0 | 0.00 | 0.15 | 0.00 | 35 | 1014.8 |
| 20260508071533 | 45 | 190 | 0.0 | 0.0 | 0.00 | 0.15 | 0.00 | 35 | 1014.9 |
| 20260508070032 | 45 | 360 | 0.0 | 1.7 | 0.00 | 0.15 | 0.00 | 35 | 1014.9 |